Hourly Data Report for October 01, 2013

All times are specified in Local Standard Time (LST). Add 1 hour to adjust for Daylight Saving Time where and when it is observed.

PANGNIRTUNG
NUNAVUT

66°08'36.300" N
65°42'40.500" W
22.60 m
2403049
71826
WXP

Download Data

Hourly Data (October 2013)
Hourly Data Report for October 1, 2013
Temp Definition
°C
Dew Point Temp Definition
°C
Rel Hum Definition
%
Wind Dir Definition
10's deg

Wind Spd Definition
km/h
Visibility Definition
km
Stn Press Definition
kPa
Hmdx Definition


Wind Chill Definition


Weather Definition


TIME
00:00 2.3 1.2 92 19 4   99.12     LegendNANA
01:00 2.0 1.2 94 22 2   99.16     LegendNANA
02:00 1.9 1.1 94   0   99.24     LegendNANA
03:00 1.7 1.2 96 7 4   99.30     LegendNANA
04:00 1.6 1.2 97 24 6   99.37     LegendNANA
05:00 2.2 1.0 92 23 11   99.44     LegendNANA
06:00 2.4 0.4 87 10 11   99.50     LegendNANA
07:00 2.8 1.5 91 7 9   99.55     LegendNANA
08:00 3.2 0.2 81 4 9   99.59     LegendNANA
09:00 3.5 -0.6 74 5 11   99.64     LegendNANA
10:00 4.0 -0.1 75 3 9   99.68     LegendNANA
11:00 2.5 1.1 90 26 13   99.72     LegendNANA
12:00 2.3 1.6 95 25 20   99.77     LegendNANA
13:00 2.2 1.8 97 24 19   99.81     LegendNANA
14:00 2.4 1.6 94 25 15   99.85     LegendNANA
15:00 2.2 1.3 94 24 13   99.91     LegendNANA
16:00 1.7 1.4 98 24 7   99.95     LegendNANA
17:00 1.2 0.7 96 23 6   99.99     LegendNANA
18:00 1.6 -2.4 75 5 11   100.04     LegendNANA
19:00 0.7 -2.4 80 3 6   100.09     LegendNANA
20:00 0.8 -2.7 77 7 9   100.10     LegendNANA
21:00 0.3 -2.7 80 7 11   100.12     LegendNANA
22:00 0.0 -2.9 81 8 6   100.14   -2 LegendNANA
23:00 -0.4 -3.1 82 7 7   100.14   -3 LegendNANA

Notes on Data Quality.

Legend

  • E = Estimated
  • M = Missing
  • NA = Not Available
  • ‡ = Partner data that is not subject to review by the National Climate Archives
Date modified: